Regional Weather Roundup
Issued by NWS

Home | Current Version | Previous Version | Graphics & Text | Print | Product List | Glossary On
Versions: 1 2 3 4 5 6 7 8 9 10 11 12 13 14 15 16 17 18 19 20 21 22 23 24 25 26 27 28 29 30 31 32 33 34 35 36 37 38 39 40 41 42 43 44 45 46 47 48 49 50
000
ASUS43 KIND 021859
RWRIN

WEATHER ROUNDUP FOR INDIANA
NATIONAL WEATHER SERVICE INDIANAPOLIS IN
300 PM EDT THU JUL 02 2015

NOTE: "FAIR" INDICATES FEW OR NO CLOUDS BELOW 12,000 FEET WITH NO
SIGNIFICANT WEATHER AND/OR OBSTRUCTIONS TO VISIBILITY.

* - STATION DOES NOT REPORT WEATHER SUCH AS PRECIPITATION OR FOG.

+ - STATION NOT QUALITY CONTROLLED BY THE NATIONAL WEATHER SERVICE.
    USE DATA WITH CAUTION...ESPECIALLY DEWPOINT AND RELATIVE
    HUMIDITY OBSERVATIONS.

INZ001>003-010>013-019-020-022000-
NORTHWEST INDIANA

CITY           SKY/WX    TMP DP  RH WIND       PRES   REMARKS
GARY /AIRPORT/ PTSUNNY   66  59  77 N14       29.99S
RENSSELAER +   MOSUNNY   73  59  60 NE10      29.95S

$$

LMZ046-743>745-022000-
SOUTHERN LAKE MICHIGAN

STATION/POSITION TIME  TEMP    WIND        PRES    WAVE
                       AIR SEA DIR/SP/G            HT
                 (UTC) (F)     (DEG/KT/KT) (MB)    (FT)
BURNS HARBOR     1800   62      20/ 14/ 17 1015.9S
MICHIGAN CITY    1800   61     360/ 16/ 18   N/A
5NW MICH CITY    1800   62 65   20/ 14/ 19   N/A     4

$$

INZ004-005-014>016-021>024-022000-
NORTH CENTRAL INDIANA

CITY           SKY/WX    TMP DP  RH WIND       PRES   REMARKS
ELKHART        MOSUNNY   72  54  53 NE10      29.98F
GOSHEN         MOSUNNY   74  55  51 E7        29.97F
SOUTH BEND     MOSUNNY   75  56  51 NE8       29.97F

$$

INZ006>009-017-018-025>027-022000-
NORTHEAST INDIANA

CITY           SKY/WX    TMP DP  RH WIND       PRES   REMARKS
ANGOLA *+        N/A     72  64  78 E7        29.98F
FORT WAYNE     MOSUNNY   75  58  55 NE10      29.95F

$$

INZ028-029-035-036-043>045-051>053-022000-
WEST CENTRAL INDIANA

CITY           SKY/WX    TMP DP  RH WIND       PRES   REMARKS
CRAWFORDSVL +  PTSUNNY   73  60  61 NE7       29.91S
GREENCASTLE +  PTSUNNY   77  61  57 NE8       29.90S
LAFAYETTE      MOSUNNY   75  63  66 NE8       29.92S
TERRE HAUTE    CLOUDY    77  65  66 CALM      29.89S

$$

INZ030>032-037>040-046>048-054>057-064-065-022000-
CENTRAL INDIANA

CITY           SKY/WX    TMP DP  RH WIND       PRES   REMARKS
ANDERSON       PTSUNNY   77  57  50 E6        29.92F
COLUMBUS       CLOUDY    75  66  73 N6        29.88F
GREENWOOD *+   CLOUDY    77  63  61 E9        29.89F
INDIANAPOLIS   PTSUNNY   78  63  59 NE12      29.87F
-EAGLE CREEK   PTSUNNY   77  64  64 NE9       29.89F
KOKOMO *+      PTSUNNY   73  64  73 NE13G18   29.92S
MT COMFORT *+  MOSUNNY   77  59  53 E9        29.91S
SHELBYVILLE    PTSUNNY   79  65  62 NE6       29.88F

$$

INZ033-034-041-042-049-050-058-059-022000-
EAST CENTRAL INDIANA

CITY           SKY/WX    TMP DP  RH WIND       PRES   REMARKS
MUNCIE         PTSUNNY   76  63  64 E12       29.92S

$$

INZ060-061-067>069-081>083-085>088-022000-
SOUTHWEST INDIANA

CITY           SKY/WX    TMP DP  RH WIND       PRES   REMARKS
EVANSVILLE     CLOUDY    79  69  71 SE3       29.86F
HUNTINGBURG *+ CLOUDY    73  70  88 SW3       29.87F

$$

INZ062-063-066-070>080-084-089>092-022000-
SOUTH CENTRAL AND SOUTHEAST INDIANA

CITY           SKY/WX    TMP DP  RH WIND       PRES   REMARKS
BLOOMINGTON    PTSUNNY   77  66  68 NE8       29.88S
MADISON *+     CLOUDY    75  68  78 SW5       29.89S
SEYMOUR +      PTSUNNY   81  68  65 N7        29.87S

$$



USA.gov is the U.S. government's official web portal to all federal, state and local government web resources and services.